This demonstration page uses our WeatherBlox Daily Observations layout. Learn more.

40.92945, -100.16068

Hourly Observations for July 9, 2015

Temp ( °F °C ) Dew Point ( °F °C ) Humidity (%) Winds ( mph kmh ) Pressure ( in mb ) Visibility ( mi km ) Precip ( " mm )
12:15 am 00:15 Mostly Cloudy 60 15.7 58 14.7 94 94 Calm 30 1016 7 11.26538 N/A
12:35 am 00:35 Partly Cloudy 60 15.8 58 14.7 93 93 Calm 30 1016 7 11.26538 N/A
12:55 am 00:55 Mostly Cloudy 60 15.7 58 14.7 94 94 Calm 30 1016 7 11.26538 N/A
1:15 am 01:15 Cloudy with Mist and Fog 60 15.7 58 14.7 94 94 Calm 30 1016 5 8.0467 N/A
1:35 am 01:35 Cloudy with Mist and Fog 60 15.6 58 14.5 93 93 Calm 30 1016 5 8.0467 N/A
1:55 am 01:55 Cloudy with Mist and Fog 60 15.8 59 15 95 95 Calm 30 1016 5 8.0467 N/A
2:15 am 02:15 Mostly Cloudy with Mist and Fog 60 15.8 59 15 95 95 Calm 30 1016 5 8.0467 N/A
2:35 am 02:35 Partly Cloudy with Mist and Fog 60 15.8 59 15 95 95 Calm 30 1016 5 8.0467 N/A
2:55 am 02:55 Mostly Cloudy 61 16 59 14.8 93 93 Calm 30 1016 7 11.26538 N/A
3:15 am 03:15 Mostly Cloudy with Mist and Fog 61 16 59 14.8 93 93 Calm 30 1016 5 8.0467 N/A
3:35 am 03:35 Partly Cloudy with Mist and Fog 60 15.7 58 14.7 94 94 Calm 30 1016 5 8.0467 N/A
3:55 am 03:55 Mostly Cloudy with Mist and Fog 60 15.7 58 14.7 94 94 Calm 30 1016 5 8.0467 N/A
4:15 am 04:15 Cloudy with Mist and Fog 60 15.8 59 15 95 95 Calm 30 1016 5 8.0467 N/A
4:35 am 04:35 Cloudy with Light Rain 60 15.8 59 14.9 94 94 Calm 30 1016 5 8.0467 N/A
4:55 am 04:55 Mostly Cloudy with Mist and Fog 60 15.6 58 14.7 94 94 Calm 30 1016 4 6.43736 N/A
5:15 am 05:15 Cloudy with Mist and Fog 60 15.7 59 15 96 96 Calm 30 1016 4 6.43736 N/A
5:35 am 05:35 Cloudy with Mist and Fog 60 15.8 59 15 95 95 Calm 30 1016 4 6.43736 N/A
5:55 am 05:55 Cloudy with Mist and Fog 60 15.8 59 15 95 95 Calm 30 1016 5 8.0467 N/A
6:15 am 06:15 Partly Cloudy with Mist and Fog 60 15.5 59 14.8 96 96 Calm 30 1016 3 4.82802 N/A
6:35 am 06:35 Sunny with Mist and Fog 59 15.1 58 14.4 96 96 W 5 7 30.03 1017 2 3.21868 N/A
6:55 am 06:55 Mostly Cloudy with Mist and Fog 59 15 58 14.2 95 95 Calm 30.03 1017 3 4.82802 0 0
7:15 am 07:15 Partly Cloudy with Mist and Fog 60 15.5 59 14.9 96 96 Calm 30.03 1017 2.5 4.02335 N/A
7:35 am 07:35 Mostly Cloudy with Mist and Fog 62 16.5 60 15.8 96 96 WNW 3 6 30.03 1017 3 4.82802 N/A
7:55 am 07:55 Cloudy with Mist and Fog 62 16.9 61 16 94 94 NW 5 7 30.03 1017 4 6.43736 N/A
8:15 am 08:15 Cloudy 64 17.5 60 15.6 89 89 Calm 30 1016 7 11.26538 N/A
8:35 am 08:35 Cloudy 65 18.5 60 15.5 83 83 Calm 30 1016 7 11.26538 N/A
8:55 am 08:55 Partly Cloudy 65 18.5 60 15.3 82 82 Calm 30 1016 7 11.26538 N/A
9:15 am 09:15 Sunny 66 18.9 60 15.4 80 80 SSE 3 6 30 1016 7 11.26538 N/A
9:35 am 09:35 Sunny 67 19.7 60 15.5 77 77 SSW 5 7 30 1016 10 16.0934 N/A
9:55 am 09:55 Sunny 68 19.9 59 14.8 73 73 S 5 7 30 1016 10 16.0934 N/A
10:15 am 10:15 Sunny 69 20.3 60 15.3 73 73 S 3 6 30 1016 10 16.0934 N/A
10:35 am 10:35 Sunny 69 20.5 60 15.4 73 73 S 5 7 29.97 1015 10 16.0934 N/A
10:55 am 10:55 Sunny 70 20.9 59 15.2 70 70 S 5 7 29.97 1015 10 16.0934 N/A
11:15 am 11:15 Sunny 70 21 58 14.6 67 67 S 5 7 29.97 1015 10 16.0934 N/A
11:35 am 11:35 Sunny 71 21.6 58 14.4 64 64 SSW 5 7 29.97 1015 10 16.0934 N/A
11:55 am 11:55 Sunny 72 22 58 14.2 61 61 SSW 3 6 29.97 1015 10 16.0934 N/A
12:15 pm 12:15 Sunny 72 22.4 56 13.6 58 58 SSE 3 6 29.97 1015 10 16.0934 N/A
12:35 pm 12:35 Sunny 73 22.8 56 13.6 56 56 Calm 29.97 1015 10 16.0934 N/A
12:55 pm 12:55 Sunny 75 23.8 56 13.4 52 52 SSW 5 7 29.91 1013 10 16.0934 N/A
1:15 pm 13:15 Sunny 76 24.7 55 12.5 47 47 ESE 5 7 29.91 1013 10 16.0934 N/A
1:35 pm 13:35 Sunny 76 24.6 53 11.7 45 45 SSE 5 7 29.91 1013 10 16.0934 N/A
1:55 pm 13:55 Sunny 77 25.1 51 10.5 40 40 SSE 5 7 29.91 1013 10 16.0934 N/A
2:15 pm 14:15 Sunny 78 25.5 49 9.5 36 36 SSW 6 9 29.91 1013 10 16.0934 N/A
2:35 pm 14:35 Sunny 78 25.5 48 8.9 35 35 ESE 6 9 29.91 1013 10 16.0934 N/A
2:55 pm 14:55 Sunny 78 25.5 50 9.8 37 37 S 6 9 29.91 1013 10 16.0934 N/A
3:15 pm 15:15 Sunny 78 25.6 51 10.7 39 39 S 7 11 29.91 1013 10 16.0934 N/A
3:35 pm 15:35 Sunny 79 26.2 54 12.4 42 42 SE 9 15 29.91 1013 10 16.0934 N/A
3:55 pm 15:55 Sunny 80 26.5 52 11.3 39 39 SSE 9 15 29.91 1013 10 16.0934 N/A
4:15 pm 16:15 Partly Cloudy 80 26.9 51 10.8 37 37 SE 8 13 29.91 1013 10 16.0934 N/A
4:35 pm 16:35 Sunny 81 27.3 49 9.4 33 33 SE 9 15 29.85 1011 10 16.0934 N/A
4:55 pm 16:55 Sunny 81 27.3 49 9.3 32 32 SSE 10 17 29.85 1011 10 16.0934 N/A
5:15 pm 17:15 Sunny 80 26.8 49 9.6 34 34 SSE 10 17 29.85 1011 10 16.0934 N/A
5:35 pm 17:35 Partly Cloudy 81 27.1 51 10.6 36 36 SSE 12 19 29.85 1011 10 16.0934 N/A
5:55 pm 17:55 Mostly Cloudy 80 26.7 51 10.8 37 37 SE 9 15 29.85 1011 10 16.0934 N/A
6:15 pm 18:15 Cloudy 80 26.6 53 11.5 39 39 SSE 10 17 29.85 1011 10 16.0934 N/A
6:35 pm 18:35 Cloudy 79 26.2 54 12.1 42 42 SSE 8 13 29.88 1012 10 16.0934 N/A
6:55 pm 18:55 Partly Cloudy 80 26.5 56 13.1 44 44 S 6 9 29.85 1011 10 16.0934 N/A
7:15 pm 19:15 Sunny 79 25.9 56 13.6 47 47 SSE 7 11 29.88 1012 10 16.0934 N/A
7:35 pm 19:35 Mostly Cloudy 78 25.4 57 13.9 49 49 SE 7 11 29.88 1012 10 16.0934 N/A
7:55 pm 19:55 Cloudy 78 25.4 57 13.7 48 48 SE 6 9 29.88 1012 10 16.0934 N/A
8:15 pm 20:15 Cloudy 77 25.2 56 13.3 48 48 ESE 7 11 29.88 1012 10 16.0934 N/A
8:35 pm 20:35 Cloudy 76 24.7 56 13.4 49 49 ESE 10 17 29.88 1012 10 16.0934 N/A
8:55 pm 20:55 Cloudy 75 24 57 14.1 54 54 ESE 8 13 29.88 1012 10 16.0934 N/A
9:15 pm 21:15 Cloudy 74 23.3 58 14.4 57 57 E 8 13 29.91 1013 10 16.0934 N/A
9:35 pm 21:35 Cloudy 73 22.8 59 14.8 61 61 E 7 11 29.91 1013 10 16.0934 N/A
9:55 pm 21:55 Cloudy 73 22.6 60 15.3 64 64 ESE 9 15 29.91 1013 10 16.0934 N/A
10:15 pm 22:15 Partly Cloudy 72 22 59 15.2 65 65 ESE 10 17 29.91 1013 10 16.0934 N/A
10:35 pm 22:35 Clear 71 21.4 59 15.1 67 67 ESE 9 15 29.91 1013 10 16.0934 N/A
10:55 pm 22:55 Clear 69 20.6 59 15.2 71 71 ESE 8 13 29.91 1013 10 16.0934 N/A
11:15 pm 23:15 Clear 69 20.5 60 15.5 73 73 SE 10 17 29.94 1014 10 16.0934 N/A
11:35 pm 23:35 Clear 68 20.1 60 15.8 76 76 SE 7 11 29.97 1015 10 16.0934 N/A
11:55 pm 23:55 Clear 67 19.5 60 15.8 79 79 SSE 6 9 29.97 1015 10 16.0934 N/A

Powered by AerisWeather